Time,TemperatureF,DewpointF,PressureIn,WindDirection,WindDirectionDegrees,WindSpeedMPH,WindSpeedGustMPH,Humidity,HourlyPrecipIn,Conditions,Clouds,dailyrainin,SoftwareType,DateUTC
2013-06-27 00:01:00,61.0,41.1,30.53,South,183,3.1,3.1,48,0.00,,,0.00,WeatherCatV1.12B45,2013-06-27 07:01:00,
2013-06-27 00:06:00,60.8,41.5,30.53,SW,222,0.0,3.6,49,0.00,,,0.00,WeatherCatV1.12B45,2013-06-27 07:06:00,
2013-06-27 00:11:00,60.8,41.5,30.53,South,187,0.0,0.0,49,0.00,,,0.00,WeatherCatV1.12B45,2013-06-27 07:11:00,
2013-06-27 00:16:00,60.6,41.9,30.53,South,182,0.0,3.6,50,0.00,,,0.00,WeatherCatV1.12B45,2013-06-27 07:16:00,
2013-06-27 00:21:00,60.4,41.7,30.53,South,170,2.7,4.0,50,0.00,,,0.00,WeatherCatV1.12B45,2013-06-27 07:21:00,
2013-06-27 00:26:00,60.1,41.9,30.53,South,170,0.0,3.6,51,0.00,,,0.00,WeatherCatV1.12B45,2013-06-27 07:26:00,
2013-06-27 00:31:00,59.7,42.6,30.53,South,185,0.0,0.0,53,0.00,,,0.00,WeatherCatV1.12B45,2013-06-27 07:31:00,
2013-06-27 00:36:00,59.4,42.7,30.53,South,185,0.0,0.0,54,0.00,,,0.00,WeatherCatV1.12B45,2013-06-27 07:36:00,
2013-06-27 00:41:00,59.0,42.9,30.53,SE,127,0.0,2.2,55,0.00,,,0.00,WeatherCatV1.12B45,2013-06-27 07:41:00,
2013-06-27 00:46:00,59.0,43.8,30.53,ESE,102,0.0,0.0,57,0.00,,,0.00,WeatherCatV1.12B45,2013-06-27 07:46:00,
2013-06-27 00:51:00,58.8,44.1,30.56,ESE,102,0.0,0.0,58,0.00,,,0.00,WeatherCatV1.12B45,2013-06-27 07:51:00,
2013-06-27 00:56:00,58.6,44.4,30.56,East,101,0.0,0.0,59,0.00,,,0.00,WeatherCatV1.12B45,2013-06-27 07:56:00,
2013-06-27 01:01:00,58.6,45.2,30.56,ESE,102,0.0,0.0,61,0.00,,,0.00,WeatherCatV1.12B45,2013-06-27 08:01:00,
2013-06-27 01:06:00,58.8,45.4,30.53,ESE,102,0.0,0.0,61,0.00,,,0.00,WeatherCatV1.12B45,2013-06-27 08:06:00,
2013-06-27 01:11:00,58.6,45.7,30.53,ESE,102,0.0,0.0,62,0.00,,,0.00,WeatherCatV1.12B45,2013-06-27 08:11:00,
2013-06-27 01:16:00,58.6,46.5,30.56,ESE,102,0.0,0.0,64,0.00,,,0.00,WeatherCatV1.12B45,2013-06-27 08:16:00,
2013-06-27 01:21:00,58.8,46.7,30.56,ESE,102,0.0,0.0,64,0.00,,,0.00,WeatherCatV1.12B45,2013-06-27 08:21:00,
2013-06-27 01:26:00,58.8,46.7,30.56,ESE,102,0.0,0.0,64,0.00,,,0.00,WeatherCatV1.12B45,2013-06-27 08:26:00,
2013-06-27 01:31:00,58.6,46.9,30.56,East,101,0.0,0.0,65,0.00,,,0.00,WeatherCatV1.12B45,2013-06-27 08:31:00,
2013-06-27 01:36:00,58.6,47.3,30.56,ESE,102,0.0,0.0,66,0.00,,,0.00,WeatherCatV1.12B45,2013-06-27 08:36:00,
2013-06-27 01:41:00,58.8,47.5,30.56,ESE,102,0.0,0.0,66,0.00,,,0.00,WeatherCatV1.12B45,2013-06-27 08:41:00,
2013-06-27 01:46:00,58.8,47.9,30.56,ESE,102,0.0,0.0,67,0.00,,,0.00,WeatherCatV1.12B45,2013-06-27 08:46:00,
2013-06-27 01:51:00,58.8,47.9,30.53,ESE,102,0.0,0.0,67,0.00,,,0.00,WeatherCatV1.12B45,2013-06-27 08:51:00,
2013-06-27 01:56:00,58.6,48.1,30.53,ESE,102,0.0,0.0,68,0.00,,,0.00,WeatherCatV1.12B45,2013-06-27 08:56:00,
2013-06-27 02:01:00,58.6,48.5,30.56,ESE,102,0.0,0.0,69,0.00,,,0.00,WeatherCatV1.12B45,2013-06-27 09:01:00,
2013-06-27 02:06:00,58.6,48.5,30.56,ESE,102,0.0,0.0,69,0.00,,,0.00,WeatherCatV1.12B45,2013-06-27 09:06:00,
2013-06-27 02:11:00,58.6,48.5,30.56,ESE,102,0.0,0.0,69,0.00,,,0.00,WeatherCatV1.12B45,2013-06-27 09:11:00,
2013-06-27 02:16:00,58.6,48.9,30.56,ESE,102,0.0,0.0,70,0.00,,,0.00,WeatherCatV1.12B45,2013-06-27 09:16:00,
2013-06-27 02:21:00,58.6,49.3,30.56,ESE,102,0.0,0.0,71,0.00,,,0.00,WeatherCatV1.12B45,2013-06-27 09:21:00,
2013-06-27 02:26:00,58.8,49.8,30.56,ESE,102,0.0,0.0,72,0.00,,,0.00,WeatherCatV1.12B45,2013-06-27 09:26:00,
2013-06-27 02:31:00,58.6,49.6,30.56,ESE,102,0.0,0.0,72,0.00,,,0.00,WeatherCatV1.12B45,2013-06-27 09:31:00,
2013-06-27 02:36:00,58.5,49.5,30.56,ESE,102,0.0,0.0,72,0.00,,,0.00,WeatherCatV1.12B45,2013-06-27 09:36:00,
2013-06-27 02:41:00,58.3,49.7,30.56,ESE,102,0.0,0.0,73,0.00,,,0.00,WeatherCatV1.12B45,2013-06-27 09:41:00,
2013-06-27 02:46:00,58.1,49.9,30.56,ESE,102,0.0,0.0,74,0.00,,,0.00,WeatherCatV1.12B45,2013-06-27 09:46:00,
2013-06-27 02:51:00,58.1,49.9,30.56,ESE,102,0.0,0.0,74,0.00,,,0.00,WeatherCatV1.12B45,2013-06-27 09:51:00,
2013-06-27 02:56:00,58.1,50.6,30.56,ESE,102,0.0,0.0,76,0.00,,,0.00,WeatherCatV1.12B45,2013-06-27 09:56:00,
2013-06-27 03:01:00,57.9,50.8,30.56,ESE,102,0.0,0.0,77,0.00,,,0.00,WeatherCatV1.12B45,2013-06-27 10:01:00,
2013-06-27 03:06:00,57.9,50.8,30.56,East,101,0.0,0.0,77,0.00,,,0.00,WeatherCatV1.12B45,2013-06-27 10:06:00,
2013-06-27 03:11:00,57.7,50.6,30.56,ESE,102,0.0,0.0,77,0.00,,,0.00,WeatherCatV1.12B45,2013-06-27 10:11:00,
2013-06-27 03:16:00,57.6,50.4,30.56,ESE,102,0.0,0.0,77,0.00,,,0.00,WeatherCatV1.12B45,2013-06-27 10:16:00,
2013-06-27 03:21:00,57.4,50.2,30.56,ESE,102,0.0,0.0,77,0.00,,,0.00,WeatherCatV1.12B45,2013-06-27 10:21:00,
2013-06-27 03:26:00,57.2,50.4,30.56,ESE,102,0.0,0.0,78,0.00,,,0.00,WeatherCatV1.12B45,2013-06-27 10:26:00,
2013-06-27 03:31:00,57.2,50.4,30.56,ESE,102,0.0,0.0,78,0.00,,,0.00,WeatherCatV1.12B45,2013-06-27 10:31:00,
2013-06-27 03:36:00,57.2,51.1,30.56,ESE,102,0.0,0.0,80,0.00,,,0.00,WeatherCatV1.12B45,2013-06-27 10:36:00,
2013-06-27 03:41:00,57.2,51.1,30.56,ESE,102,0.0,0.0,80,0.00,,,0.00,WeatherCatV1.12B45,2013-06-27 10:41:00,
2013-06-27 03:46:00,57.2,51.4,30.56,ESE,102,0.0,0.0,81,0.00,,,0.00,WeatherCatV1.12B45,2013-06-27 10:46:00,
2013-06-27 03:51:00,57.2,51.4,30.56,ESE,102,0.0,0.0,81,0.00,,,0.00,WeatherCatV1.12B45,2013-06-27 10:51:00,
2013-06-27 03:56:00,57.2,51.4,30.56,ESE,102,0.0,0.0,81,0.00,,,0.00,WeatherCatV1.12B45,2013-06-27 10:56:00,
2013-06-27 04:01:00,57.0,51.2,30.56,ESE,102,0.0,0.0,81,0.00,,,0.00,WeatherCatV1.12B45,2013-06-27 11:01:00,
2013-06-27 04:06:00,56.8,51.1,30.56,ESE,102,0.0,0.0,81,0.00,,,0.00,WeatherCatV1.12B45,2013-06-27 11:06:00,
2013-06-27 04:11:00,56.8,51.4,30.56,ESE,102,0.0,0.0,82,0.00,,,0.00,WeatherCatV1.12B45,2013-06-27 11:11:00,
2013-06-27 04:16:00,56.5,50.7,30.56,ESE,102,0.0,0.0,81,0.00,,,0.00,WeatherCatV1.12B45,2013-06-27 11:16:00,
2013-06-27 04:21:00,56.3,50.9,30.56,ESE,102,0.0,0.0,82,0.00,,,0.00,WeatherCatV1.12B45,2013-06-27 11:21:00,
2013-06-27 04:26:00,56.3,50.9,30.56,ESE,102,0.0,0.0,82,0.00,,,0.00,WeatherCatV1.12B45,2013-06-27 11:26:00,
2013-06-27 04:31:00,56.3,51.2,30.53,ESE,102,0.0,0.0,83,0.00,,,0.00,WeatherCatV1.12B45,2013-06-27 11:31:00,
2013-06-27 04:36:00,56.3,51.2,30.53,ESE,102,0.0,0.0,83,0.00,,,0.00,WeatherCatV1.12B45,2013-06-27 11:36:00,
2013-06-27 04:41:00,56.5,51.7,30.53,East,101,0.0,0.0,84,0.00,,,0.00,WeatherCatV1.12B45,2013-06-27 11:41:00,
2013-06-27 04:46:00,56.7,51.9,30.56,ESE,102,0.0,0.0,84,0.00,,,0.00,WeatherCatV1.12B45,2013-06-27 11:46:00,
2013-06-27 04:51:00,56.8,52.4,30.56,ESE,102,0.0,0.0,85,0.00,,,0.00,WeatherCatV1.12B45,2013-06-27 11:51:00,
2013-06-27 04:56:00,56.8,52.4,30.56,ESE,102,0.0,0.0,85,0.00,,,0.00,WeatherCatV1.12B45,2013-06-27 11:56:00,
2013-06-27 05:01:00,57.0,52.9,30.56,ESE,102,0.0,0.0,86,0.00,,,0.00,WeatherCatV1.12B45,2013-06-27 12:01:00,
2013-06-27 05:06:00,57.0,52.9,30.56,East,101,0.0,0.0,86,0.00,,,0.00,WeatherCatV1.12B45,2013-06-27 12:06:00,
2013-06-27 05:11:00,57.0,52.6,30.56,ESE,102,0.0,0.0,85,0.00,,,0.00,WeatherCatV1.12B45,2013-06-27 12:11:00,
2013-06-27 05:16:00,56.8,52.4,30.56,ESE,102,0.0,0.0,85,0.00,,,0.00,WeatherCatV1.12B45,2013-06-27 12:16:00,
2013-06-27 05:22:00,56.8,52.1,30.56,ESE,102,0.0,0.0,84,0.00,,,0.00,WeatherCatV1.12B45,2013-06-27 12:22:00,
2013-06-27 05:27:00,56.7,51.9,30.56,ESE,102,0.0,0.0,84,0.00,,,0.00,WeatherCatV1.12B45,2013-06-27 12:27:00,
2013-06-27 05:32:00,56.5,51.7,30.56,East,101,0.0,0.0,84,0.00,,,0.00,WeatherCatV1.12B45,2013-06-27 12:32:00,
2013-06-27 05:37:00,56.5,51.7,30.56,ESE,102,0.0,0.0,84,0.00,,,0.00,WeatherCatV1.12B45,2013-06-27 12:37:00,
2013-06-27 05:42:00,56.5,51.7,30.56,East,101,0.0,0.0,84,0.00,,,0.00,WeatherCatV1.12B45,2013-06-27 12:42:00,
2013-06-27 05:47:00,56.5,51.7,30.56,ESE,102,0.0,0.0,84,0.00,,,0.00,WeatherCatV1.12B45,2013-06-27 12:47:00,
2013-06-27 05:52:00,56.8,52.1,30.56,ESE,102,0.0,0.0,84,0.00,,,0.00,WeatherCatV1.12B45,2013-06-27 12:52:00,
2013-06-27 05:57:00,57.2,52.4,30.56,ESE,102,0.0,0.0,84,0.00,,,0.00,WeatherCatV1.12B45,2013-06-27 12:57:00,
2013-06-27 06:02:00,57.6,52.8,30.56,ESE,102,0.0,0.0,84,0.00,,,0.00,WeatherCatV1.12B45,2013-06-27 13:02:00,
2013-06-27 06:07:00,57.7,52.9,30.56,East,97,2.2,2.2,84,0.00,,,0.00,WeatherCatV1.12B45,2013-06-27 13:07:00,
2013-06-27 06:12:00,57.9,53.1,30.56,East,97,0.0,0.0,84,0.00,,,0.00,WeatherCatV1.12B45,2013-06-27 13:12:00,
2013-06-27 06:17:00,58.3,53.1,30.56,East,97,0.0,0.0,83,0.00,,,0.00,WeatherCatV1.12B45,2013-06-27 13:17:00,
2013-06-27 06:22:00,58.6,53.5,30.56,East,97,0.0,0.0,83,0.00,,,0.00,WeatherCatV1.12B45,2013-06-27 13:22:00,
2013-06-27 06:26:00,58.8,53.3,30.56,NE,43,0.0,2.7,82,0.00,,,0.00,WeatherCatV1.12B45,2013-06-27 13:26:00,
2013-06-27 06:31:00,58.8,53.0,30.56,NE,43,0.0,0.0,81,0.00,,,0.00,WeatherCatV1.12B45,2013-06-27 13:31:00,
2013-06-27 06:36:00,59.0,52.5,30.56,NE,43,0.0,0.0,79,0.00,,,0.00,WeatherCatV1.12B45,2013-06-27 13:36:00,
2013-06-27 06:41:00,59.4,52.8,30.56,NE,43,0.0,0.0,79,0.00,,,0.00,WeatherCatV1.12B45,2013-06-27 13:41:00,
2013-06-27 06:46:00,59.9,53.0,30.59,NE,43,0.0,0.0,78,0.00,,,0.00,WeatherCatV1.12B45,2013-06-27 13:46:00,
2013-06-27 06:51:00,60.6,51.9,30.59,NE,43,0.0,0.0,73,0.00,,,0.00,WeatherCatV1.12B45,2013-06-27 13:51:00,
2013-06-27 06:56:00,61.0,47.9,30.59,NE,43,0.0,0.0,62,0.00,,,0.00,WeatherCatV1.12B45,2013-06-27 13:56:00,
2013-06-27 07:01:00,61.0,47.4,30.59,NE,43,0.0,0.0,61,0.00,,,0.00,WeatherCatV1.12B45,2013-06-27 14:01:00,
2013-06-27 07:06:00,61.2,46.3,30.59,NE,43,0.0,0.0,58,0.00,,,0.00,WeatherCatV1.12B45,2013-06-27 14:06:00,
2013-06-27 07:11:00,61.5,46.1,30.59,NE,43,0.0,0.0,57,0.00,,,0.00,WeatherCatV1.12B45,2013-06-27 14:11:00,
2013-06-27 07:16:00,61.7,47.2,30.59,NE,43,0.0,0.0,59,0.00,,,0.00,WeatherCatV1.12B45,2013-06-27 14:16:00,
2013-06-27 07:21:00,62.2,47.3,30.59,NE,43,0.0,0.0,58,0.00,,,0.00,WeatherCatV1.12B45,2013-06-27 14:21:00,
2013-06-27 07:26:00,63.1,46.2,30.59,NE,43,0.0,0.0,54,0.00,,,0.00,WeatherCatV1.12B45,2013-06-27 14:26:00,
2013-06-27 07:31:00,63.5,45.0,30.59,NE,43,0.0,0.0,51,0.00,,,0.00,WeatherCatV1.12B45,2013-06-27 14:31:00,
2013-06-27 07:36:00,64.2,45.2,30.59,NE,43,0.0,0.0,50,0.00,,,0.00,WeatherCatV1.12B45,2013-06-27 14:36:00,
2013-06-27 07:41:00,64.0,44.5,30.59,NE,43,0.0,2.2,49,0.00,,,0.00,WeatherCatV1.12B45,2013-06-27 14:41:00,
2013-06-27 07:46:00,65.3,45.6,30.59,NE,43,0.0,0.0,49,0.00,,,0.00,WeatherCatV1.12B45,2013-06-27 14:46:00,
2013-06-27 07:51:00,65.8,45.0,30.59,NE,43,0.0,0.0,47,0.00,,,0.00,WeatherCatV1.12B45,2013-06-27 14:51:00,
2013-06-27 07:57:00,68.0,45.3,30.59,NE,43,0.0,0.0,44,0.00,,,0.00,WeatherCatV1.12B45,2013-06-27 14:57:00,
2013-06-27 08:02:00,71.8,46.1,30.59,NE,43,0.0,0.0,40,0.00,,,0.00,WeatherCatV1.12B45,2013-06-27 15:02:00,
2013-06-27 08:07:00,74.7,45.2,30.59,NE,43,0.0,0.0,35,0.00,,,0.00,WeatherCatV1.12B45,2013-06-27 15:07:00,
2013-06-27 08:12:00,72.9,42.1,30.59,NE,43,0.0,0.0,33,0.00,,,0.00,WeatherCatV1.12B45,2013-06-27 15:12:00,
2013-06-27 08:17:00,70.2,41.2,30.59,NE,43,0.0,0.0,35,0.00,,,0.00,WeatherCatV1.12B45,2013-06-27 15:17:00,
2013-06-27 08:22:00,69.8,41.6,30.59,NE,43,0.0,0.0,36,0.00,,,0.00,WeatherCatV1.12B45,2013-06-27 15:22:00,
2013-06-27 08:27:00,69.3,41.9,30.59,NE,43,0.0,0.0,37,0.00,,,0.00,WeatherCatV1.12B45,2013-06-27 15:27:00,
2013-06-27 08:32:00,69.4,44.1,30.59,NE,43,0.0,0.0,40,0.00,,,0.00,WeatherCatV1.12B45,2013-06-27 15:32:00,
2013-06-27 08:37:00,71.6,43.2,30.59,NE,43,2.2,3.1,36,0.00,,,0.00,WeatherCatV1.12B45,2013-06-27 15:37:00,
2013-06-27 08:42:00,71.6,42.5,30.59,NE,43,2.7,3.1,35,0.00,,,0.00,WeatherCatV1.12B45,2013-06-27 15:42:00,
2013-06-27 08:47:00,70.7,41.7,30.56,NE,43,0.0,0.0,35,0.00,,,0.00,WeatherCatV1.12B45,2013-06-27 15:47:00,
2013-06-27 08:52:00,70.0,41.8,30.56,NE,42,3.1,3.1,36,0.00,,,0.00,WeatherCatV1.12B45,2013-06-27 15:52:00,
2013-06-27 08:57:00,70.0,41.8,30.56,NE,43,0.0,0.0,36,0.00,,,0.00,WeatherCatV1.12B45,2013-06-27 15:57:00,
2013-06-27 09:02:00,69.8,45.0,30.59,NE,43,0.0,0.0,41,0.00,,,0.00,WeatherCatV1.12B45,2013-06-27 16:02:00,
2013-06-27 09:07:00,70.2,43.4,30.59,NE,43,0.0,0.0,38,0.00,,,0.00,WeatherCatV1.12B45,2013-06-27 16:07:00,
2013-06-27 09:12:00,71.4,43.8,30.59,NE,43,0.0,0.0,37,0.00,,,0.00,WeatherCatV1.12B45,2013-06-27 16:12:00,
2013-06-27 09:17:00,73.9,48.7,30.59,NE,42,0.0,0.0,41,0.00,,,0.00,WeatherCatV1.12B45,2013-06-27 16:17:00,
2013-06-27 09:22:00,73.4,43.3,30.59,NE,50,3.1,3.6,34,0.00,,,0.00,WeatherCatV1.12B45,2013-06-27 16:22:00,
2013-06-27 09:27:00,71.4,43.1,30.59,NE,50,0.0,0.0,36,0.00,,,0.00,WeatherCatV1.12B45,2013-06-27 16:27:00,
2013-06-27 09:32:00,70.2,41.9,30.59,NE,50,0.0,0.0,36,0.00,,,0.00,WeatherCatV1.12B45,2013-06-27 16:32:00,
2013-06-27 09:37:00,69.6,42.9,30.59,NE,50,0.0,0.0,38,0.00,,,0.00,WeatherCatV1.12B45,2013-06-27 16:37:00,
2013-06-27 09:42:00,69.3,42.6,30.59,NE,50,0.0,0.0,38,0.00,,,0.00,WeatherCatV1.12B45,2013-06-27 16:42:00,
2013-06-27 09:47:00,69.1,43.7,30.59,NE,50,0.0,0.0,40,0.00,,,0.00,WeatherCatV1.12B45,2013-06-27 16:47:00,
2013-06-27 09:52:00,68.7,42.8,30.59,NE,50,0.0,0.0,39,0.00,,,0.00,WeatherCatV1.12B45,2013-06-27 16:52:00,
2013-06-27 09:57:00,68.9,42.9,30.59,NE,50,0.0,0.0,39,0.00,,,0.00,WeatherCatV1.12B45,2013-06-27 16:57:00,
2013-06-27 10:02:00,69.1,43.7,30.59,NE,50,0.0,0.0,40,0.00,,,0.00,WeatherCatV1.12B45,2013-06-27 17:02:00,
2013-06-27 10:07:00,69.3,45.2,30.59,NNW,329,0.0,4.0,42,0.00,,,0.00,WeatherCatV1.12B45,2013-06-27 17:07:00,
2013-06-27 10:12:00,69.4,44.7,30.59,NW,310,0.0,0.0,41,0.00,,,0.00,WeatherCatV1.12B45,2013-06-27 17:12:00,
2013-06-27 10:17:00,69.4,44.7,30.59,NW,310,0.0,0.0,41,0.00,,,0.00,WeatherCatV1.12B45,2013-06-27 17:17:00,
2013-06-27 10:22:00,69.8,44.4,30.59,NW,310,0.0,0.0,40,0.00,,,0.00,WeatherCatV1.12B45,2013-06-27 17:22:00,
2013-06-27 10:27:00,70.7,43.8,30.59,NW,310,0.0,0.0,38,0.00,,,0.00,WeatherCatV1.12B45,2013-06-27 17:27:00,
2013-06-27 10:32:00,72.1,44.4,30.59,NW,310,0.0,0.0,37,0.00,,,0.00,WeatherCatV1.12B45,2013-06-27 17:32:00,
2013-06-27 10:37:00,72.1,43.7,30.59,NW,310,0.0,0.0,36,0.00,,,0.00,WeatherCatV1.12B45,2013-06-27 17:37:00,
2013-06-27 10:42:00,72.0,43.5,30.59,NW,310,0.0,0.0,36,0.00,,,0.00,WeatherCatV1.12B45,2013-06-27 17:42:00,
2013-06-27 10:47:00,71.8,44.1,30.59,NW,308,0.0,2.2,37,0.00,,,0.00,WeatherCatV1.12B45,2013-06-27 17:47:00,
2013-06-27 10:52:00,72.0,44.3,30.59,NW,320,0.0,4.0,37,0.00,,,0.00,WeatherCatV1.12B45,2013-06-27 17:52:00,
2013-06-27 10:57:00,72.5,46.8,30.59,West,259,0.0,0.0,40,0.00,,,0.00,WeatherCatV1.12B45,2013-06-27 17:57:00,
2013-06-27 11:02:00,73.2,43.9,30.59,WNW,297,0.0,0.0,35,0.00,,,0.00,WeatherCatV1.12B45,2013-06-27 18:02:00,
2013-06-27 11:07:00,73.6,44.2,30.59,WNW,282,2.2,2.2,35,0.00,,,0.00,WeatherCatV1.12B45,2013-06-27 18:07:00,
2013-06-27 11:12:00,74.7,44.4,30.59,NNE,20,0.0,0.0,34,0.00,,,0.00,WeatherCatV1.12B45,2013-06-27 18:12:00,
2013-06-27 11:17:00,74.5,43.5,30.59,NE,34,3.1,3.6,33,0.00,,,0.00,WeatherCatV1.12B45,2013-06-27 18:17:00,
2013-06-27 11:22:00,74.3,43.3,30.59,ENE,60,0.0,4.0,33,0.00,,,0.00,WeatherCatV1.12B45,2013-06-27 18:22:00,
2013-06-27 11:27:00,74.1,43.9,30.59,NNE,33,3.1,5.4,34,0.00,,,0.00,WeatherCatV1.12B45,2013-06-27 18:27:00,
2013-06-27 11:32:00,74.5,43.5,30.59,ENE,66,2.7,4.0,33,0.00,,,0.00,WeatherCatV1.12B45,2013-06-27 18:32:00,
2013-06-27 11:37:00,75.0,43.9,30.59,NNW,344,0.0,0.0,33,0.00,,,0.00,WeatherCatV1.12B45,2013-06-27 18:37:00,
2013-06-27 11:42:00,75.0,43.9,30.59,NNE,15,0.0,0.0,33,0.00,,,0.00,WeatherCatV1.12B45,2013-06-27 18:42:00,
2013-06-27 11:47:00,75.6,44.4,30.59,NNW,333,2.2,2.7,33,0.00,,,0.00,WeatherCatV1.12B45,2013-06-27 18:47:00,
2013-06-27 11:52:00,76.6,44.5,30.59,NNE,25,3.6,3.6,32,0.00,,,0.00,WeatherCatV1.12B45,2013-06-27 18:52:00,
2013-06-27 11:57:00,76.8,43.9,30.59,North,3,0.0,0.0,31,0.00,,,0.00,WeatherCatV1.12B45,2013-06-27 18:57:00,
2013-06-27 12:02:00,77.2,44.2,30.59,North,357,0.0,3.6,31,0.00,,,0.00,WeatherCatV1.12B45,2013-06-27 19:02:00,
2013-06-27 12:07:00,77.5,44.5,30.59,WNW,300,0.0,0.0,31,0.00,,,0.00,WeatherCatV1.12B45,2013-06-27 19:07:00,
2013-06-27 12:12:00,77.9,44.8,30.59,NNE,21,0.0,2.7,31,0.00,,,0.00,WeatherCatV1.12B45,2013-06-27 19:12:00,
2013-06-27 12:17:00,79.0,45.7,30.59,NW,324,2.7,3.6,31,0.00,,,0.00,WeatherCatV1.12B45,2013-06-27 19:17:00,
2013-06-27 12:22:00,78.4,44.4,30.59,ENE,62,3.1,5.4,30,0.00,,,0.00,WeatherCatV1.12B45,2013-06-27 19:22:00,
2013-06-27 12:27:00,77.5,43.6,30.59,NW,320,0.0,4.0,30,0.00,,,0.00,WeatherCatV1.12B45,2013-06-27 19:27:00,
2013-06-27 12:32:00,77.0,43.2,30.59,NE,43,0.0,2.7,30,0.00,,,0.00,WeatherCatV1.12B45,2013-06-27 19:32:00,
2013-06-27 12:37:00,77.0,43.2,30.59,North,357,0.0,4.9,30,0.00,,,0.00,WeatherCatV1.12B45,2013-06-27 19:37:00,
2013-06-27 12:42:00,76.8,43.9,30.59,ENE,64,3.1,3.1,31,0.00,,,0.00,WeatherCatV1.12B45,2013-06-27 19:42:00,
2013-06-27 12:47:00,77.0,44.0,30.59,WNW,299,5.8,5.8,31,0.00,,,0.00,WeatherCatV1.12B45,2013-06-27 19:47:00,
2013-06-27 12:52:00,76.5,43.6,30.59,NNE,20,2.2,3.6,31,0.00,,,0.00,WeatherCatV1.12B45,2013-06-27 19:52:00,
2013-06-27 12:57:00,76.5,44.4,30.59,NNE,26,3.6,3.6,32,0.00,,,0.00,WeatherCatV1.12B45,2013-06-27 19:57:00,
2013-06-27 13:02:00,75.7,42.9,30.59,NE,35,3.6,5.8,31,0.00,,,0.00,WeatherCatV1.12B45,2013-06-27 20:02:00,
2013-06-27 13:07:00,75.6,42.8,30.59,NE,55,3.6,5.4,31,0.00,,,0.00,WeatherCatV1.12B45,2013-06-27 20:07:00,
2013-06-27 13:12:00,75.7,42.9,30.59,NE,34,0.0,2.2,31,0.00,,,0.00,WeatherCatV1.12B45,2013-06-27 20:12:00,
2013-06-27 13:17:00,75.9,43.9,30.59,NNE,26,2.2,2.7,32,0.00,,,0.00,WeatherCatV1.12B45,2013-06-27 20:17:00,
2013-06-27 13:22:00,75.6,43.6,30.59,NNE,27,3.1,3.1,32,0.00,,,0.00,WeatherCatV1.12B45,2013-06-27 20:22:00,
2013-06-27 13:27:00,75.4,43.5,30.59,North,353,0.0,6.3,32,0.00,,,0.00,WeatherCatV1.12B45,2013-06-27 20:27:00,
2013-06-27 13:32:00,75.4,43.5,30.59,NE,55,0.0,3.6,32,0.00,,,0.00,WeatherCatV1.12B45,2013-06-27 20:32:00,
2013-06-27 13:37:00,75.4,43.5,30.59,NNE,21,0.0,0.0,32,0.00,,,0.00,WeatherCatV1.12B45,2013-06-27 20:37:00,
2013-06-27 13:42:00,75.4,42.6,30.59,ENE,76,0.0,3.1,31,0.00,,,0.00,WeatherCatV1.12B45,2013-06-27 20:42:00,
2013-06-27 13:47:00,75.6,43.6,30.59,NW,324,2.7,4.0,32,0.00,,,0.00,WeatherCatV1.12B45,2013-06-27 20:47:00,
2013-06-27 13:52:00,75.6,42.8,30.59,NNE,14,0.0,0.0,31,0.00,,,0.00,WeatherCatV1.12B45,2013-06-27 20:52:00,
2013-06-27 13:57:00,76.1,43.2,30.59,NW,309,3.1,3.6,31,0.00,,,0.00,WeatherCatV1.12B45,2013-06-27 20:57:00,
2013-06-27 14:02:00,76.5,43.6,30.59,NNW,334,0.0,0.0,31,0.00,,,0.00,WeatherCatV1.12B45,2013-06-27 21:02:00,
2013-06-27 14:07:00,76.6,43.7,30.59,NNW,339,0.0,3.6,31,0.00,,,0.00,WeatherCatV1.12B45,2013-06-27 21:07:00,
2013-06-27 14:12:00,77.0,44.0,30.59,NNW,335,0.0,3.6,31,0.00,,,0.00,WeatherCatV1.12B45,2013-06-27 21:12:00,
2013-06-27 14:17:00,78.1,45.0,30.62,NNW,343,2.2,2.2,31,0.00,,,0.00,WeatherCatV1.12B45,2013-06-27 21:17:00,
2013-06-27 14:22:00,79.3,45.2,30.62,NNW,342,0.0,3.6,30,0.00,,,0.00,WeatherCatV1.12B45,2013-06-27 21:22:00,
2013-06-27 14:27:00,80.6,45.4,30.62,NW,317,2.7,3.6,29,0.00,,,0.00,WeatherCatV1.12B45,2013-06-27 21:27:00,
2013-06-27 14:32:00,82.8,46.3,30.59,NW,325,4.0,4.0,28,0.00,,,0.00,WeatherCatV1.12B45,2013-06-27 21:32:00,
2013-06-27 14:37:00,84.2,42.4,30.59,WNW,292,7.6,7.6,23,0.00,,,0.00,WeatherCatV1.12B45,2013-06-27 21:37:00,
2013-06-27 14:42:00,82.6,39.9,30.59,NNE,32,3.1,3.6,22,0.00,,,0.00,WeatherCatV1.12B45,2013-06-27 21:42:00,
2013-06-27 14:47:00,83.7,43.0,30.59,NW,304,2.2,2.7,24,0.00,,,0.00,WeatherCatV1.12B45,2013-06-27 21:47:00,
2013-06-27 14:52:00,84.2,41.2,30.59,WSW,245,2.2,2.7,22,0.00,,,0.00,WeatherCatV1.12B45,2013-06-27 21:52:00,
2013-06-27 14:57:00,83.8,39.7,30.59,ENE,78,0.0,0.0,21,0.00,,,0.00,WeatherCatV1.12B45,2013-06-27 21:57:00,
2013-06-27 15:02:00,85.3,39.6,30.62,NE,35,0.0,0.0,20,0.00,,,0.00,WeatherCatV1.12B45,2013-06-27 22:02:00,
2013-06-27 15:07:00,86.7,40.8,30.62,WNW,286,2.7,4.0,20,0.00,,,0.00,WeatherCatV1.12B45,2013-06-27 22:07:00,
2013-06-27 15:12:00,87.8,41.7,30.62,NW,312,0.0,3.1,20,0.00,,,0.00,WeatherCatV1.12B45,2013-06-27 22:12:00,
2013-06-27 15:17:00,88.3,40.8,30.59,NE,39,3.1,4.9,19,0.00,,,0.00,WeatherCatV1.12B45,2013-06-27 22:17:00,
2013-06-27 15:22:00,87.1,39.8,30.59,ENE,73,2.7,5.4,19,0.00,,,0.00,WeatherCatV1.12B45,2013-06-27 22:22:00,
2013-06-27 15:27:00,85.3,38.3,30.59,NNE,30,0.0,4.0,19,0.00,,,0.00,WeatherCatV1.12B45,2013-06-27 22:27:00,
2013-06-27 15:32:00,84.0,38.6,30.59,NNE,30,2.7,3.1,20,0.00,,,0.00,WeatherCatV1.12B45,2013-06-27 22:32:00,
2013-06-27 15:37:00,84.4,37.6,30.59,ENE,77,0.0,5.4,19,0.00,,,0.00,WeatherCatV1.12B45,2013-06-27 22:37:00,
2013-06-27 15:42:00,83.3,38.0,30.59,East,83,0.0,4.0,20,0.00,,,0.00,WeatherCatV1.12B45,2013-06-27 22:42:00,
2013-06-27 15:47:00,83.1,37.9,30.59,NNW,328,0.0,2.7,20,0.00,,,0.00,WeatherCatV1.12B45,2013-06-27 22:47:00,
2013-06-27 15:52:00,82.2,37.1,30.59,NW,315,4.0,4.0,20,0.00,,,0.00,WeatherCatV1.12B45,2013-06-27 22:52:00,
2013-06-27 15:57:00,81.1,37.5,30.59,NNE,33,0.0,3.1,21,0.00,,,0.00,WeatherCatV1.12B45,2013-06-27 22:57:00,
2013-06-27 16:02:00,81.3,38.8,30.62,WNW,295,0.0,4.0,22,0.00,,,0.00,WeatherCatV1.12B45,2013-06-27 23:02:00,
2013-06-27 16:07:00,81.5,37.8,30.62,WNW,298,0.0,4.9,21,0.00,,,0.00,WeatherCatV1.12B45,2013-06-27 23:07:00,
2013-06-27 16:12:00,81.3,37.6,30.62,WSW,238,2.7,4.9,21,0.00,,,0.00,WeatherCatV1.12B45,2013-06-27 23:12:00,
2013-06-27 16:17:00,82.6,38.7,30.59,NNW,340,0.0,0.0,21,0.00,,,0.00,WeatherCatV1.12B45,2013-06-27 23:17:00,
2013-06-27 16:22:00,83.5,39.4,30.59,SW,233,2.7,3.1,21,0.00,,,0.00,WeatherCatV1.12B45,2013-06-27 23:22:00,
2013-06-27 16:28:00,82.2,38.4,30.59,NE,54,0.0,3.1,21,0.00,,,0.00,WeatherCatV1.12B45,2013-06-27 23:28:00,
2013-06-27 16:33:00,80.4,36.9,30.59,NNE,20,0.0,3.1,21,0.00,,,0.00,WeatherCatV1.12B45,2013-06-27 23:33:00,
2013-06-27 16:38:00,79.9,36.4,30.59,NNE,30,2.2,5.4,21,0.00,,,0.00,WeatherCatV1.12B45,2013-06-27 23:38:00,
2013-06-27 16:43:00,78.4,36.4,30.59,NE,56,0.0,0.0,22,0.00,,,0.00,WeatherCatV1.12B45,2013-06-27 23:43:00,
2013-06-27 16:48:00,78.4,36.4,30.59,NE,46,0.0,3.6,22,0.00,,,0.00,WeatherCatV1.12B45,2013-06-27 23:48:00,
2013-06-27 16:53:00,78.4,37.6,30.59,NE,34,2.2,4.0,23,0.00,,,0.00,WeatherCatV1.12B45,2013-06-27 23:53:00,
2013-06-27 16:58:00,77.0,36.3,30.59,NNE,31,2.7,4.9,23,0.00,,,0.00,WeatherCatV1.12B45,2013-06-27 23:58:00,
2013-06-27 17:03:00,76.1,36.7,30.59,NNE,24,0.0,3.6,24,0.00,,,0.00,WeatherCatV1.12B45,2013-06-28 00:03:00,
2013-06-27 17:08:00,75.4,35.0,30.59,NNE,24,2.7,4.0,23,0.00,,,0.00,WeatherCatV1.12B45,2013-06-28 00:08:00,
2013-06-27 17:13:00,75.6,36.2,30.59,NNE,24,0.0,0.0,24,0.00,,,0.00,WeatherCatV1.12B45,2013-06-28 00:13:00,
2013-06-27 17:18:00,75.6,36.2,30.62,NE,40,0.0,2.2,24,0.00,,,0.00,WeatherCatV1.12B45,2013-06-28 00:18:00,
2013-06-27 17:23:00,75.4,36.1,30.62,WNW,290,2.7,2.7,24,0.00,,,0.00,WeatherCatV1.12B45,2013-06-28 00:23:00,
2013-06-27 17:28:00,75.0,36.8,30.62,NW,311,2.7,2.7,25,0.00,,,0.00,WeatherCatV1.12B45,2013-06-28 00:28:00,
2013-06-27 17:33:00,74.7,36.5,30.59,NNE,23,5.4,5.8,25,0.00,,,0.00,WeatherCatV1.12B45,2013-06-28 00:33:00,
2013-06-27 17:38:00,73.9,35.9,30.59,South,175,0.0,0.0,25,0.00,,,0.00,WeatherCatV1.12B45,2013-06-28 00:38:00,
2013-06-27 17:43:00,73.9,36.9,30.59,SSE,149,0.0,0.0,26,0.00,,,0.00,WeatherCatV1.12B45,2013-06-28 00:43:00,
2013-06-27 17:48:00,73.6,36.6,30.62,WNW,291,0.0,0.0,26,0.00,,,0.00,WeatherCatV1.12B45,2013-06-28 00:48:00,
2013-06-27 17:53:00,73.6,37.5,30.62,West,260,3.6,3.6,27,0.00,,,0.00,WeatherCatV1.12B45,2013-06-28 00:53:00,
2013-06-27 17:58:00,73.9,37.8,30.62,East,82,5.8,5.8,27,0.00,,,0.00,WeatherCatV1.12B45,2013-06-28 00:58:00,
2013-06-27 18:03:00,74.1,38.0,30.59,NW,317,0.0,0.0,27,0.00,,,0.00,WeatherCatV1.12B45,2013-06-28 01:03:00,
2013-06-27 18:08:00,74.1,38.0,30.59,NW,306,0.0,2.2,27,0.00,,,0.00,WeatherCatV1.12B45,2013-06-28 01:08:00,
2013-06-27 18:13:00,73.9,39.7,30.59,NW,320,0.0,0.0,29,0.00,,,0.00,WeatherCatV1.12B45,2013-06-28 01:13:00,
2013-06-27 18:18:00,73.2,38.1,30.59,NNE,32,2.7,3.1,28,0.00,,,0.00,WeatherCatV1.12B45,2013-06-28 01:18:00,
2013-06-27 18:23:00,72.7,37.7,30.59,ENE,59,0.0,0.0,28,0.00,,,0.00,WeatherCatV1.12B45,2013-06-28 01:23:00,
2013-06-27 18:28:00,72.5,38.4,30.59,NE,46,0.0,3.6,29,0.00,,,0.00,WeatherCatV1.12B45,2013-06-28 01:28:00,
2013-06-27 18:33:00,72.5,38.4,30.59,NE,54,0.0,3.1,29,0.00,,,0.00,WeatherCatV1.12B45,2013-06-28 01:33:00,
2013-06-27 18:38:00,72.5,40.1,30.59,NE,42,2.7,3.6,31,0.00,,,0.00,WeatherCatV1.12B45,2013-06-28 01:38:00,
2013-06-27 18:43:00,72.3,38.3,30.59,NE,34,0.0,2.7,29,0.00,,,0.00,WeatherCatV1.12B45,2013-06-28 01:43:00,
2013-06-27 18:48:00,72.3,39.1,30.59,ENE,65,0.0,0.0,30,0.00,,,0.00,WeatherCatV1.12B45,2013-06-28 01:48:00,
2013-06-27 18:53:00,72.1,39.8,30.59,ENE,65,0.0,0.0,31,0.00,,,0.00,WeatherCatV1.12B45,2013-06-28 01:53:00,
2013-06-27 18:58:00,72.0,39.7,30.59,NE,35,3.6,3.6,31,0.00,,,0.00,WeatherCatV1.12B45,2013-06-28 01:58:00,
2013-06-27 19:03:00,71.8,39.5,30.59,NNE,20,3.1,4.0,31,0.00,,,0.00,WeatherCatV1.12B45,2013-06-28 02:03:00,
2013-06-27 19:08:00,72.0,39.7,30.59,NNE,30,0.0,2.7,31,0.00,,,0.00,WeatherCatV1.12B45,2013-06-28 02:08:00,
2013-06-27 19:13:00,71.8,39.5,30.59,North,0,0.0,2.2,31,0.00,,,0.00,WeatherCatV1.12B45,2013-06-28 02:13:00,
2013-06-27 19:18:00,71.8,40.3,30.59,East,81,0.0,0.0,32,0.00,,,0.00,WeatherCatV1.12B45,2013-06-28 02:18:00,
2013-06-27 19:23:00,71.6,40.2,30.59,East,81,0.0,0.0,32,0.00,,,0.00,WeatherCatV1.12B45,2013-06-28 02:23:00,
2013-06-27 19:28:00,71.4,40.0,30.59,East,81,0.0,0.0,32,0.00,,,0.00,WeatherCatV1.12B45,2013-06-28 02:28:00,
2013-06-27 19:33:00,71.2,39.9,30.59,WSW,246,0.0,0.0,32,0.00,,,0.00,WeatherCatV1.12B45,2013-06-28 02:33:00,
2013-06-27 19:38:00,70.9,40.3,30.59,WNW,290,0.0,0.0,33,0.00,,,0.00,WeatherCatV1.12B45,2013-06-28 02:38:00,
2013-06-27 19:43:00,70.3,40.6,30.59,NNW,328,0.0,0.0,34,0.00,,,0.00,WeatherCatV1.12B45,2013-06-28 02:43:00,
2013-06-27 19:48:00,70.0,41.1,30.59,NW,314,0.0,0.0,35,0.00,,,0.00,WeatherCatV1.12B45,2013-06-28 02:48:00,
2013-06-27 19:53:00,69.8,41.6,30.59,NW,312,0.0,2.2,36,0.00,,,0.00,WeatherCatV1.12B45,2013-06-28 02:53:00,
2013-06-27 19:58:00,69.6,42.2,30.59,North,3,0.0,0.0,37,0.00,,,0.00,WeatherCatV1.12B45,2013-06-28 02:58:00,
2013-06-27 20:03:00,69.3,41.9,30.59,North,3,0.0,0.0,37,0.00,,,0.00,WeatherCatV1.12B45,2013-06-28 03:03:00,
2013-06-27 20:08:00,69.1,43.1,30.59,North,3,0.0,0.0,39,0.00,,,0.00,WeatherCatV1.12B45,2013-06-28 03:08:00,
2013-06-27 20:13:00,68.9,42.2,30.59,North,3,0.0,0.0,38,0.00,,,0.00,WeatherCatV1.12B45,2013-06-28 03:13:00,
2013-06-27 20:18:00,68.7,42.8,30.62,NE,42,0.0,0.0,39,0.00,,,0.00,WeatherCatV1.12B45,2013-06-28 03:18:00,
2013-06-27 20:23:00,68.5,43.3,30.62,NE,42,0.0,0.0,40,0.00,,,0.00,WeatherCatV1.12B45,2013-06-28 03:23:00,
2013-06-27 20:28:00,68.2,43.6,30.62,NE,42,0.0,0.0,41,0.00,,,0.00,WeatherCatV1.12B45,2013-06-28 03:28:00,
2013-06-27 20:33:00,67.8,43.9,30.62,NE,42,0.0,0.0,42,0.00,,,0.00,WeatherCatV1.12B45,2013-06-28 03:33:00,
2013-06-27 20:38:00,67.6,44.3,30.62,NE,42,0.0,0.0,43,0.00,,,0.00,WeatherCatV1.12B45,2013-06-28 03:38:00,
2013-06-27 20:43:00,67.5,44.2,30.62,NE,42,0.0,0.0,43,0.00,,,0.00,WeatherCatV1.12B45,2013-06-28 03:43:00,
2013-06-27 20:48:00,67.3,44.0,30.62,NE,42,0.0,0.0,43,0.00,,,0.00,WeatherCatV1.12B45,2013-06-28 03:48:00,
2013-06-27 20:53:00,67.3,44.0,30.62,NW,309,2.7,2.7,43,0.00,,,0.00,WeatherCatV1.12B45,2013-06-28 03:53:00,
2013-06-27 20:58:00,67.1,43.8,30.62,West,273,0.0,0.0,43,0.00,,,0.00,WeatherCatV1.12B45,2013-06-28 03:58:00,
2013-06-27 21:01:00,66.9,43.7,30.62,West,273,0.0,0.0,43,0.00,,,0.00,WeatherCatV1.12B45,2013-06-28 04:01:00,
2013-06-27 21:06:00,66.7,43.5,30.62,West,273,0.0,0.0,43,0.00,,,0.00,WeatherCatV1.12B45,2013-06-28 04:06:00,
2013-06-27 21:11:00,66.6,43.4,30.62,West,273,0.0,0.0,43,0.00,,,0.00,WeatherCatV1.12B45,2013-06-28 04:11:00,
2013-06-27 21:16:00,66.6,43.4,30.62,West,273,0.0,0.0,43,0.00,,,0.00,WeatherCatV1.12B45,2013-06-28 04:16:00,
2013-06-27 21:21:00,66.4,43.2,30.62,West,265,0.0,0.0,43,0.00,,,0.00,WeatherCatV1.12B45,2013-06-28 04:21:00,
2013-06-27 21:26:00,66.2,43.0,30.62,West,265,0.0,0.0,43,0.00,,,0.00,WeatherCatV1.12B45,2013-06-28 04:26:00,
2013-06-27 21:31:00,66.0,42.9,30.62,West,265,0.0,0.0,43,0.00,,,0.00,WeatherCatV1.12B45,2013-06-28 04:31:00,
2013-06-27 21:36:00,65.8,43.3,30.62,West,265,0.0,0.0,44,0.00,,,0.00,WeatherCatV1.12B45,2013-06-28 04:36:00,
2013-06-27 21:41:00,65.7,43.1,30.62,West,265,0.0,0.0,44,0.00,,,0.00,WeatherCatV1.12B45,2013-06-28 04:41:00,
2013-06-27 21:46:00,65.5,42.4,30.62,West,265,0.0,0.0,43,0.00,,,0.00,WeatherCatV1.12B45,2013-06-28 04:46:00,
2013-06-27 21:51:00,65.5,43.0,30.62,West,265,0.0,0.0,44,0.00,,,0.00,WeatherCatV1.12B45,2013-06-28 04:51:00,
2013-06-27 21:56:00,65.5,43.0,30.62,West,265,0.0,0.0,44,0.00,,,0.00,WeatherCatV1.12B45,2013-06-28 04:56:00,
2013-06-27 22:01:00,65.1,42.7,30.62,West,265,0.0,0.0,44,0.00,,,0.00,WeatherCatV1.12B45,2013-06-28 05:01:00,
2013-06-27 22:06:00,65.1,42.7,30.62,West,265,0.0,0.0,44,0.00,,,0.00,WeatherCatV1.12B45,2013-06-28 05:06:00,
2013-06-27 22:11:00,65.1,42.7,30.62,West,262,0.0,3.1,44,0.00,,,0.00,WeatherCatV1.12B45,2013-06-28 05:11:00,
2013-06-27 22:16:00,65.1,43.2,30.62,West,262,0.0,0.0,45,0.00,,,0.00,WeatherCatV1.12B45,2013-06-28 05:16:00,
2013-06-27 22:21:00,64.9,42.5,30.62,West,262,0.0,0.0,44,0.00,,,0.00,WeatherCatV1.12B45,2013-06-28 05:21:00,
2013-06-27 22:26:00,64.8,42.3,30.62,West,259,0.0,0.0,44,0.00,,,0.00,WeatherCatV1.12B45,2013-06-28 05:26:00,
2013-06-27 22:31:00,64.8,42.3,30.62,West,270,0.0,0.0,44,0.00,,,0.00,WeatherCatV1.12B45,2013-06-28 05:31:00,
2013-06-27 22:36:00,64.6,42.2,30.62,West,270,0.0,0.0,44,0.00,,,0.00,WeatherCatV1.12B45,2013-06-28 05:36:00,
2013-06-27 22:41:00,64.4,42.0,30.62,West,270,0.0,0.0,44,0.00,,,0.00,WeatherCatV1.12B45,2013-06-28 05:41:00,
2013-06-27 22:46:00,64.2,42.4,30.62,West,270,0.0,0.0,45,0.00,,,0.00,WeatherCatV1.12B45,2013-06-28 05:46:00,
2013-06-27 22:51:00,64.0,42.3,30.62,West,270,0.0,0.0,45,0.00,,,0.00,WeatherCatV1.12B45,2013-06-28 05:51:00,
2013-06-27 22:56:00,63.9,42.1,30.62,West,270,0.0,0.0,45,0.00,,,0.00,WeatherCatV1.12B45,2013-06-28 05:56:00,
2013-06-27 23:01:00,63.7,41.9,30.62,West,270,0.0,0.0,45,0.00,,,0.00,WeatherCatV1.12B45,2013-06-28 06:01:00,
2013-06-27 23:06:00,63.7,41.9,30.62,West,270,0.0,0.0,45,0.00,,,0.00,WeatherCatV1.12B45,2013-06-28 06:06:00,
2013-06-27 23:11:00,63.5,41.8,30.62,West,270,0.0,0.0,45,0.00,,,0.00,WeatherCatV1.12B45,2013-06-28 06:11:00,
2013-06-27 23:16:00,63.5,41.8,30.62,West,270,0.0,0.0,45,0.00,,,0.00,WeatherCatV1.12B45,2013-06-28 06:16:00,
2013-06-27 23:21:00,63.3,41.6,30.62,West,270,0.0,0.0,45,0.00,,,0.00,WeatherCatV1.12B45,2013-06-28 06:21:00,
2013-06-27 23:26:00,63.1,41.4,30.62,West,270,0.0,0.0,45,0.00,,,0.00,WeatherCatV1.12B45,2013-06-28 06:26:00,
2013-06-27 23:31:00,63.0,41.9,30.62,West,270,0.0,0.0,46,0.00,,,0.00,WeatherCatV1.12B45,2013-06-28 06:31:00,
2013-06-27 23:36:00,63.0,41.9,30.62,West,270,0.0,0.0,46,0.00,,,0.00,WeatherCatV1.12B45,2013-06-28 06:36:00,
2013-06-27 23:41:00,62.8,41.7,30.62,West,270,0.0,0.0,46,0.00,,,0.00,WeatherCatV1.12B45,2013-06-28 06:41:00,
2013-06-27 23:46:00,62.8,41.7,30.62,West,270,0.0,0.0,46,0.00,,,0.00,WeatherCatV1.12B45,2013-06-28 06:46:00,
2013-06-27 23:51:00,62.8,41.7,30.62,West,270,0.0,0.0,46,0.00,,,0.00,WeatherCatV1.12B45,2013-06-28 06:51:00,
2013-06-27 23:56:00,62.8,41.7,30.62,West,270,0.0,0.0,46,0.00,,,0.00,WeatherCatV1.12B45,2013-06-28 06:56:00,